Home   Weather   Augusta   Past weeks

Flag for USA Past Weather in Augusta, Georgia, USA — Yesterday and Last 2 Weeks

Now
68 °F

Light rain. Overcast.


Feels Like: 68 °F
Forecast: 60 / 71 °F
Wind: 8 mph from North

Location: Daniel Field

Current Time: Apr 23, 2017 at 9:23:22 pm

Latest Report: Apr 23, 2017 at 7:53 pm


Visibility: 10 mi

Pressure: 29.75 "Hg

Humidity: 76%

Dew Point: 60 °F

Location of AugustaLocation

Past Weather in Augusta — Graph

°F

Augusta Temperature Yesterday

Maximum temperature yesterday: 88 °F (at 2:53 pm)
Minimum temperature yesterday: 66 °F (at 6:53 am)
Average temperature yesterday: 77 °F

High & Low Weather Summary for the Past Weeks

 TemperatureHumidityPressure
High88 °F (Apr 21, 4:53 pm)87% (Apr 19, 3:44 am)30.38 "Hg (Apr 19, 3:44 am)
Low50 °F (Apr 9, 2:53 am)21% (Apr 9, 4:53 pm)29.74 "Hg (Apr 23, 5:53 pm)
Average72 °F57%30.16 "Hg
* Reported Apr 8 7:53 pm — Apr 23 7:53 pm, Augusta, Weather by CustomWeather, © 2017

Note: Actual official high and low records may vary slightly from our data, if they occured in-between our weather recording intervals... More about our weather records

Advertising

Augusta Weather History for the Previous 24 Hours

Scroll right to see more
 ConditionsComfort  
Time TempWeatherWind HumidityBarometerVisibility
7:53 pm
Sun, Apr 23
68 °FLight rain. Overcast.8 mph76%29.75 "Hg10 mi
6:53 pm69 °FOvercast.12 mph73%29.75 "Hg10 mi
6:36 pm69 °FPartly sunny.9 mph73%29.76 "Hg10 mi
5:53 pm70 °FPartly sunny.15 mph71%29.74 "Hg10 mi
4:53 pm72 °FMostly cloudy.15 mph66%29.74 "Hg10 mi
3:53 pm75 °FPartly sunny.15 mph62%29.74 "Hg10 mi
2:53 pm83 °FPartly sunny.7 mph44%29.75 "Hg10 mi
1:53 pm83 °FScattered clouds.10 mph43%29.78 "Hg10 mi
12:53 pm80 °FPassing clouds.10 mph52%29.81 "Hg10 mi
11:53 am80 °FPassing clouds.8 mph52%29.84 "Hg10 mi
10:53 am76 °FSunny.7 mph60%29.85 "Hg10 mi
9:53 am73 °FSunny.8 mph64%29.84 "Hg10 mi
8:53 am69 °FSunny.9 mph68%29.85 "Hg10 mi
7:53 am67 °FPassing clouds.8 mph73%29.85 "Hg10 mi
6:53 am66 °FSunny.7 mph70%29.83 "Hg10 mi
5:53 am66 °FPassing clouds.7 mph70%29.82 "Hg10 mi
4:53 am67 °FClear.10 mph66%29.83 "Hg10 mi
3:53 am70 °FPassing clouds.No wind66%29.83 "Hg10 mi
2:53 am71 °FPassing clouds.7 mph66%29.84 "Hg10 mi
1:53 am72 °FClear.5 mph61%29.85 "Hg10 mi
12:53 am73 °FPassing clouds.5 mph53%29.86 "Hg10 mi
11:53 pm
Sat, Apr 22
76 °FPassing clouds.No wind42%29.86 "Hg10 mi
10:53 pm77 °FPassing clouds.No wind40%29.86 "Hg10 mi
9:53 pm78 °FClear.No wind39%29.84 "Hg10 mi
Weather by CustomWeather, © 2017

See weather overviewHow to use our weather pages